When you browse on this site, cookies collect data to enhance your experience and personalize the content and advertising you see.
Visit our Privacy Policy to learn more. By continuing to use the site, you agree to this use of cookies and data.
  • In Czech Republic
  • List of Countries
  • For 7 days
  • Water Temperature
  • Satellite Maps
  • Weather Map
  • Weather Widgets
  • user-avatar
    Login

    Hourly Weather Wlora

    Today, 16 January, Wednesday

    Time Temperature Precipitation Wind Pressure Humidity
    00:00 -1°C° 0 mm 8 mps 766 mmHg 51%
    01:00 -1°C° 0 mm 7 mps 766 mmHg 47%
    02:00 -1°C° 0 mm 6 mps 766 mmHg 46%
    03:00 0°C° 0 mm 5 mps 766 mmHg 44%
    04:00 0°C° 0 mm 4 mps 766 mmHg 43%
    05:00 0°C° 0 mm 4 mps 767 mmHg 41%
    06:00 +1°C° 0 mm 4 mps 767 mmHg 40%
    07:00 +1°C° 0 mm 4 mps 767 mmHg 38%
    08:00 +3°C° 0 mm 4 mps 767 mmHg 43%
    09:00 +5°C° 0 mm 4 mps 767 mmHg 47%
    10:00 +8°C° 0 mm 3 mps 767 mmHg 52%
    11:00 +8°C° 0 mm 3 mps 767 mmHg 54%
    12:00 +9°C° 0 mm 3 mps 767 mmHg 57%
    13:00 +9°C° 0 mm 3 mps 767 mmHg 59%
    14:00 +8°C° 0 mm 3 mps 767 mmHg 62%
    15:00 +8°C° 0 mm 2 mps 767 mmHg 65%
    16:00 +7°C° 0 mm 2 mps 767 mmHg 67%
    17:00 +6°C° 0 mm 2 mps 767 mmHg 68%
    18:00 +6°C° 0 mm 2 mps 767 mmHg 70%
    19:00 +5°C° 0 mm 2 mps 767 mmHg 71%
    20:00 +5°C° 0 mm 2 mps 767 mmHg 71%
    21:00 +6°C° 0 mm 1 mps 767 mmHg 70%
    22:00 +6°C° 0 mm 1 mps 767 mmHg 70%
    23:00 +6°C° 0 mm 1 mps 767 mmHg 70%

    Tomorrow, 17 January, Thursday

    Time Temperature Precipitation Wind Pressure Humidity
    00:00 +6°C° 0 mm 1 mps 767 mmHg 69%
    01:00 +6°C° 0 mm 1 mps 767 mmHg 69%
    02:00 +6°C° 0 mm 1 mps 767 mmHg 70%
    03:00 +5°C° 0 mm 2 mps 767 mmHg 71%
    04:00 +5°C° 0 mm 2 mps 766 mmHg 72%
    05:00 +4°C° 0 mm 3 mps 766 mmHg 73%
    06:00 +4°C° 0 mm 4 mps 766 mmHg 73%
    07:00 +3°C° 0 mm 5 mps 766 mmHg 74%
    08:00 +6°C° 0 mm 5 mps 766 mmHg 71%
    09:00 +7°C° 0 mm 6 mps 766 mmHg 69%
    10:00 +9°C° 0 mm 6 mps 766 mmHg 66%
    11:00 +9°C° 0 mm 7 mps 766 mmHg 69%
    12:00 +10°C° 0 mm 7 mps 765 mmHg 72%
    13:00 +10°C° 0 mm 8 mps 765 mmHg 76%
    14:00 +10°C° 0 mm 8 mps 765 mmHg 80%
    15:00 +9°C° 0 mm 8 mps 765 mmHg 85%
    16:00 +9°C° 0 mm 8 mps 764 mmHg 89%
    17:00 +7°C° 0 mm 8 mps 764 mmHg 91%
    18:00 +7°C° 0 mm 8 mps 765 mmHg 93%
    19:00 +6°C° 0 mm 8 mps 765 mmHg 95%
    20:00 +7°C° 0.1 mm 8 mps 765 mmHg 95%
    21:00 +7°C° 0.1 mm 8 mps 765 mmHg 96%
    22:00 +7°C° 0.1 mm 8 mps 765 mmHg 97%
    23:00 +7°C° 0.5 mm 8 mps 764 mmHg 97%

    Day after tomorrow, 18 January, Friday

    Time Temperature Precipitation Wind Pressure Humidity
    00:00 +9°C° 0.5 mm 8 mps 764 mmHg 97%
    01:00 +9°C° 0.5 mm 8 mps 764 mmHg 98%
    02:00 +9°C° 0.9 mm 8 mps 764 mmHg 98%
    03:00 +9°C° 0.9 mm 8 mps 764 mmHg 98%
    04:00 +9°C° 0.9 mm 8 mps 763 mmHg 98%
    05:00 +9°C° 0.8 mm 7 mps 763 mmHg 98%
    06:00 +9°C° 0.8 mm 7 mps 763 mmHg 98%
    07:00 +9°C° 0.8 mm 7 mps 763 mmHg 98%
    08:00 +9°C° 0.2 mm 7 mps 764 mmHg 98%
    09:00 +9°C° 0.2 mm 7 mps 764 mmHg 98%
    10:00 +9°C° 0.2 mm 7 mps 764 mmHg 98%
    11:00 +9°C° 0 mm 8 mps 764 mmHg 98%
    12:00 +10°C° 0 mm 8 mps 763 mmHg 97%
    13:00 +10°C° 0 mm 8 mps 763 mmHg 97%
    14:00 +10°C° 0 mm 8 mps 763 mmHg 96%
    15:00 +10°C° 0 mm 8 mps 763 mmHg 96%
    16:00 +10°C° 0 mm 8 mps 763 mmHg 96%
    17:00 +9°C° 0 mm 8 mps 763 mmHg 96%
    18:00 +8°C° 0 mm 9 mps 763 mmHg 96%
    19:00 +7°C° 0 mm 9 mps 764 mmHg 95%
    20:00 +7°C° 0 mm 9 mps 764 mmHg 96%
    21:00 +8°C° 0 mm 9 mps 764 mmHg 97%
    22:00 +8°C° 0 mm 9 mps 764 mmHg 97%
    23:00 +8°C° 0.2 mm 9 mps 764 mmHg 98%

    19 January, Saturday

    Time Temperature Precipitation Wind Pressure Humidity
    00:00 +8°C° 0.2 mm 9 mps 764 mmHg 98%
    01:00 +8°C° 0.2 mm 9 mps 764 mmHg 98%
    02:00 +8°C° 0.1 mm 9 mps 764 mmHg 98%
    03:00 +8°C° 0.1 mm 9 mps 764 mmHg 98%
    04:00 +8°C° 0.1 mm 9 mps 764 mmHg 97%
    05:00 +8°C° 0 mm 9 mps 764 mmHg 97%
    06:00 +8°C° 0 mm 10 mps 764 mmHg 97%
    07:00 +8°C° 0 mm 10 mps 764 mmHg 97%
    08:00 +8°C° 0 mm 10 mps 764 mmHg 95%
    09:00 +9°C° 0 mm 10 mps 764 mmHg 93%
    10:00 +9°C° 0 mm 10 mps 764 mmHg 91%
    11:00 +9°C° 0.2 mm 10 mps 763 mmHg 92%
    12:00 +9°C° 0.2 mm 10 mps 763 mmHg 93%
    13:00 +8°C° 0.2 mm 10 mps 763 mmHg 94%
    14:00 +8°C° 0.5 mm 10 mps 762 mmHg 94%
    15:00 +8°C° 0.5 mm 10 mps 762 mmHg 94%
    16:00 +8°C° 0.5 mm 10 mps 762 mmHg 95%
    17:00 +8°C° 0.6 mm 10 mps 762 mmHg 96%
    18:00 +8°C° 0.6 mm 10 mps 762 mmHg 96%
    19:00 +8°C° 0.6 mm 10 mps 762 mmHg 97%
    20:00 +8°C° 0.7 mm 10 mps 762 mmHg 97%
    21:00 +8°C° 0.7 mm 10 mps 762 mmHg 97%
    22:00 +8°C° 0.7 mm 10 mps 762 mmHg 97%
    23:00 +8°C° 0.8 mm 10 mps 762 mmHg 96%

    20 January, Sunday

    Time Temperature Precipitation Wind Pressure Humidity
    00:00 +8°C° 0.8 mm 10 mps 762 mmHg 95%
    01:00 +8°C° 0.8 mm 11 mps 761 mmHg 95%
    02:00 +8°C° 0.7 mm 11 mps 761 mmHg 96%
    03:00 +8°C° 0.7 mm 10 mps 761 mmHg 97%
    04:00 +8°C° 0.7 mm 10 mps 761 mmHg 97%
    05:00 +8°C° 0.6 mm 10 mps 761 mmHg 98%
    06:00 +8°C° 0.6 mm 10 mps 761 mmHg 98%
    07:00 +8°C° 0.6 mm 10 mps 761 mmHg 98%
    08:00 +8°C° 0.7 mm 10 mps 761 mmHg 98%
    09:00 +8°C° 0.7 mm 10 mps 761 mmHg 98%
    10:00 +8°C° 0.7 mm 10 mps 761 mmHg 98%
    11:00 +8°C° 0.5 mm 9 mps 761 mmHg 98%
    12:00 +8°C° 0.5 mm 9 mps 761 mmHg 97%
    13:00 +8°C° 0.5 mm 9 mps 760 mmHg 97%
    14:00 +10°C° 0.2 mm 9 mps 760 mmHg 97%
    15:00 +10°C° 0.2 mm 8 mps 760 mmHg 96%
    16:00 +10°C° 0.2 mm 8 mps 760 mmHg 96%
    17:00 +10°C° 0 mm 8 mps 760 mmHg 95%
    18:00 +9°C° 0 mm 8 mps 761 mmHg 95%
    19:00 +9°C° 0 mm 7 mps 761 mmHg 94%
    20:00 +9°C° 0.1 mm 7 mps 761 mmHg 93%
    21:00 +9°C° 0.1 mm 6 mps 761 mmHg 92%
    22:00 +9°C° 0.1 mm 6 mps 762 mmHg 91%
    23:00 +9°C° 0.2 mm 6 mps 761 mmHg 89%

    21 January, Monday

    Time Temperature Precipitation Wind Pressure Humidity
    00:00 +9°C° 0.2 mm 6 mps 761 mmHg 88%
    01:00 +9°C° 0.2 mm 5 mps 761 mmHg 87%
    02:00 +9°C° 0.2 mm 5 mps 761 mmHg 88%
    03:00 +9°C° 0.2 mm 5 mps 761 mmHg 88%
    04:00 +9°C° 0.2 mm 5 mps 761 mmHg 89%
    05:00 +8°C° 0.2 mm 6 mps 761 mmHg 89%
    06:00 +8°C° 0.2 mm 6 mps 761 mmHg 90%
    07:00 +8°C° 0.2 mm 6 mps 761 mmHg 91%
    08:00 +9°C° 0.1 mm 6 mps 762 mmHg 90%
    09:00 +10°C° 0.1 mm 6 mps 762 mmHg 89%
    10:00 +11°C° 0.1 mm 6 mps 762 mmHg 88%
    11:00 +11°C° 0.1 mm 6 mps 762 mmHg 88%
    12:00 +11°C° 0.1 mm 6 mps 761 mmHg 87%
    13:00 +13°C° 0.1 mm 6 mps 761 mmHg 87%
    14:00 +11°C° 0.2 mm 6 mps 761 mmHg 89%
    15:00 +11°C° 0.2 mm 6 mps 761 mmHg 90%
    16:00 +11°C° 0.2 mm 6 mps 761 mmHg 92%
    17:00 +10°C° 0.2 mm 6 mps 761 mmHg 93%
    18:00 +10°C° 0.2 mm 7 mps 761 mmHg 94%
    19:00 +9°C° 0.2 mm 7 mps 761 mmHg 95%
    20:00 +9°C° 0.4 mm 7 mps 761 mmHg 94%
    21:00 +9°C° 0.4 mm 7 mps 761 mmHg 93%
    22:00 +9°C° 0.4 mm 8 mps 761 mmHg 92%
    23:00 +9°C° 0.4 mm 8 mps 761 mmHg 90%
    Show more